Location: Bishopstone
(51.0167°N, 1.9000°W)
Time: 11:52:06
(UTC+00:00)

Cosmos 389 Rocket - Pass Details

Date: 16 September 2019
Orbit: 444 x 478 km, 81.1° (Epoch: 19 October)

Event Time Altitude Azimuth Distance (km) Brightness Sun altitude
Rises 20:31:42 0° 341° (NNW) 2,462 7.0 -20.3°
Reaches altitude 10° 20:33:52 10° 333° (NNW) 1,582 6.0 -20.6°
Maximum altitude 20:37:04 37° 264° (W) 713 3.8 -21.0°
Enters shadow 20:38:25 25° 217° (SW) 930 4.0 -21.2°
